Total_Precipitation_Accumulation
0.00 0.00 0.17 0.00 0.00 0.00 0.00 0.00 0.13 0.13 0.08 0.00 -0.00 -0.00 0.00 0.00 0.00 0.06 0.04 0.00 0.00 0.00 0.00 0.00 0.00 0.00 0.00 0.00 0.00 0.00 0.00 0.00 0.00 0.00 0.00 0.00 0.00 0.00 0.00 0.00 0.00 0.00 0.00 0.00 0.00 0.00 0.00 0.00 0.00 0.00 0.00 0.00 0.00 0.00 0.00 0.00 0.00 0.00 0.00 0.00 0.00 0.00 0.00 0.00 0.00 0.00 0.00 0.00 0.00 0.00 0.00 0.00 0.00 0.00 0.00 0.00 0.00 -0.00 -0.01 0.00 0.00 0.00 0.00 0.00 0.00 0.00 0.00 0.00 0.00 0.00 0.00 0.00 0.00 0.00 0.00 0.00 0.00 0.00 0.00 0.00 0.00 0.00 0.00
0.00 -0.01 0.04 0.00 0.00 0.00 0.00 0.00 0.11 0.11 0.13 -0.00 -0.00 -0.00 0.00 0.00 0.00 0.00 0.02 0.00 0.00 0.00 0.00 0.00 0.00 0.00 0.00 0.00 0.00 0.00 0.00 0.00 0.00 0.00 0.00 0.00 0.00 0.00 0.00 0.00 0.00 0.00 0.00 0.00 0.00 0.00 0.00 0.00 0.00 0.00 0.00 0.00 0.00 0.00 0.00 0.00 0.00 0.00 0.00 0.00 0.00 0.00 0.00 0.00 0.00 0.00 0.00 0.00 0.00 0.00 0.00 0.00 0.00 0.00 -0.00 0.00 0.00 0.00 -0.00 0.00 0.00 0.00 0.00 0.00 0.00 0.00 0.00 0.00 0.00 0.00 0.00 0.00 0.00 0.00 0.00 0.00 0.00 0.00 0.00 0.00 0.00 0.00 0.00
0.00 0.00 0.00 0.00 0.00 0.00 0.00 0.00 0.15 0.15 0.17 -0.00 0.00 0.00 0.00 0.00 0.00 0.00 0.00 0.00 0.00 0.00 0.00 0.00 0.00 0.00 0.00 0.00 0.00 0.00 0.00 0.00 0.00 0.00 0.00 0.00 0.00 0.00 0.00 0.00 0.00 0.00 0.00 0.00 0.00 0.00 0.00 0.00 0.00 0.00 0.00 0.00 0.00 0.00 0.00 0.00 0.00 0.00 0.00 0.00 0.00 0.00 0.00 0.00 0.00 0.00 0.00 0.00 0.00 0.00 0.00 0.00 -0.00 -0.00 -0.00 0.00 0.00 0.00 0.00 0.00 0.00 0.00 0.00 0.00 0.00 0.00 0.00 0.00 0.00 0.00 0.00 0.00 0.00 0.00 0.00 0.00 0.00 0.00 0.00 0.00 0.00 0.00 0.00
0.00 0.00 -0.00 0.00 0.00 0.00 0.00 0.00 0.23 0.23 0.27 0.00 -0.00 -0.00 -0.00 0.00 0.00 0.00 0.00 0.00 0.00 0.00 0.00 0.00 0.00 0.00 0.00 0.00 0.00 0.00 0.00 0.00 0.00 0.00 0.00 0.00 0.00 0.00 0.00 0.00 0.00 0.00 0.00 0.00 0.00 0.00 0.00 0.00 0.00 0.00 0.00 0.00 0.00 0.00 0.00 0.00 0.00 0.00 0.00 0.00 0.00 0.00 0.00 0.00 0.00 0.00 0.00 0.00 0.00 0.00 0.00 0.00 -0.00 -0.00 0.00 0.00 0.00 0.00 0.00 0.00 0.00 0.00 0.00 0.00 0.00 0.00 0.00 0.00 0.00 0.00 0.00 0.00 0.00 0.00 0.00 0.00 0.00 0.00 0.00 0.00 0.00 0.00 0.00
0.00 0.00 -0.00 0.00 0.00 0.00 0.00 0.00 0.00 0.00 0.21 0.05 0.00 0.00 -0.00 0.00 0.00 0.00 0.00 0.00 0.00 0.00 0.00 0.00 0.00 0.00 0.00 0.00 0.00 0.00 0.00 0.00 0.00 0.00 0.00 0.00 0.00 0.00 0.00 0.00 0.00 0.00 0.00 0.00 0.00 0.00 0.00 0.00 0.00 0.00 0.00 0.00 0.00 0.00 0.00 0.00 0.00 0.00 0.00 0.00 0.00 0.00 0.00 0.00 0.00 0.00 0.00 0.00 0.00 0.00 0.00 -0.01 0.00 0.00 0.00 0.00 0.00 0.00 0.00 0.00 0.00 0.00 0.00 0.00 0.00 0.00 0.00 0.00 0.00 0.00 0.00 0.00 0.00 0.00 0.00 0.00 0.00 0.00 0.00 0.00 0.00 0.00 0.00
-0.02 0.00 0.00 0.00 0.00 0.00 0.00 0.00 0.00 0.00 0.16 0.03 0.02 0.02 0.01 0.00 0.00 0.00 0.00 0.00 0.00 0.00 0.00 0.00 0.00 0.00 0.00 0.00 0.00 0.00 0.00 0.00 0.00 0.00 0.00 0.00 0.00 0.00 0.00 0.00 0.00 0.00 0.00 0.00 0.00 0.00 0.00 0.00 0.00 0.00 0.00 0.00 0.00 0.00 0.00 0.00 0.00 0.00 0.00 0.00 0.00 0.00 0.00 0.00 0.00 0.00 0.00 0.00 0.00 0.00 0.00 0.00 0.02 0.02 0.00 0.00 0.00 0.00 0.00 0.00 0.00 0.00 0.00 0.00 0.00 0.00 0.00 0.00 0.00 0.00 0.00 0.00 0.00 0.00 0.00 0.00 0.00 0.00 0.00 0.00 0.00 0.00 0.00
-0.06 -0.06 -0.01 -0.00 0.00 0.00 0.00 0.00 0.00 0.00 0.10 0.06 0.04 0.04 0.03 -0.01 -0.01 0.00 0.00 0.00 0.00 0.00 0.00 0.00 0.00 0.00 0.00 0.00 0.00 0.00 0.00 0.00 0.00 0.00 0.00 0.00 0.00 0.00 0.00 0.00 0.00 0.00 0.00 0.00 0.00 0.00 0.00 0.00 0.00 0.00 0.00 0.00 0.00 0.00 0.00 0.00 0.00 0.00 0.00 0.00 0.00 0.00 0.00 0.00 0.00 0.00 0.00 0.00 0.00 0.00 -0.00 0.00 0.02 0.02 0.00 0.00 0.00 0.00 0.00 0.00 0.00 0.00 0.00 0.00 0.00 0.00 0.00 0.00 0.00 0.00 0.00 0.00 0.00 0.00 0.00 0.00 0.00 0.00 0.00 0.00 0.00 0.00 0.00
-0.08 0.02 -0.01 -0.02 0.00 0.00 0.00 0.00 0.00 0.00 0.02 0.12 0.01 0.01 0.05 -0.01 -0.01 -0.00 0.00 0.00 0.00 0.00 0.00 0.00 0.00 0.00 0.00 0.00 0.00 0.00 0.00 0.00 0.00 0.00 0.00 0.00 0.00 0.00 0.00 0.00 0.00 0.00 0.00 0.00 0.00 0.00 0.00 0.00 0.00 0.00 0.00 0.00 0.00 0.00 0.00 0.00 0.00 0.00 0.00 0.00 0.00 0.00 0.00 0.00 0.00 0.00 0.00 0.00 0.00 0.00 -0.00 0.04 0.01 0.01 0.00 0.00 0.00 0.00 0.00 0.00 0.00 0.00 0.00 0.00 0.00 0.00 0.00 0.00 0.00 0.00 0.00 0.00 0.00 0.00 0.00 0.00 0.00 0.00 0.00 0.00 0.00 0.00 0.00
-0.25 -0.25 -0.05 -0.03 0.00 0.00 0.00 0.00 0.00 0.00 -0.00 0.11 0.00 0.00 0.03 0.02 0.02 -0.00 0.00 0.00 0.00 0.00 0.00 0.00 0.00 0.00 0.00 0.00 0.00 0.00 0.00 0.00 0.00 0.00 0.00 0.00 0.00 0.00 0.00 0.00 0.00 0.00 0.00 0.00 0.00 0.00 0.00 0.00 0.00 0.00 0.00 0.00 0.00 0.00 0.00 0.00 0.00 0.00 0.00 0.00 0.00 0.00 0.00 0.00 0.00 0.00 0.00 0.00 -0.01 -0.01 0.00 0.06 0.07 0.07 0.00 0.00 0.00 0.00 0.00 0.00 0.00 0.00 0.00 0.00 0.00 0.00 0.00 0.00 0.00 0.00 0.00 0.00 0.00 0.00 0.00 0.00 0.00 0.00 0.00 0.00 0.00 0.00 0.00
-0.26 -0.22 -0.11 -0.02 -0.00 -0.00 0.00 0.00 0.00 0.00 0.00 0.02 0.03 0.03 0.00 0.00 0.00 0.01 0.00 0.00 0.00 0.00 0.00 0.00 0.00 0.00 0.00 0.00 0.00 0.00 0.00 0.00 0.00 0.00 0.00 0.00 0.00 0.00 0.00 0.00 0.00 0.00 0.00 0.00 0.00 0.00 0.00 0.00 0.00 0.00 0.00 0.00 0.00 0.00 0.00 0.00 0.00 0.00 0.00 0.00 0.00 0.00 0.00 0.00 0.00 0.00 0.00 0.00 -0.01 -0.01 0.00 0.05 0.02 0.02 0.00 0.00 0.00 -0.00 0.00 0.00 0.00 0.00 0.00 0.00 0.00 0.00 0.00 0.00 0.00 0.00 0.00 0.00 0.00 0.00 0.00 0.00 0.00 0.00 0.00 0.00 0.00 0.00 0.00
-0.28 -0.17 -0.08 -0.03 -0.00 -0.00 0.00 0.00 0.00 0.00 0.00 -0.00 0.00 0.00 0.00 0.00 0.00 0.01 0.01 0.00 0.00 0.00 0.00 0.00 0.00 0.00 0.00 0.00 0.00 0.00 0.00 0.00 0.00 0.00 0.00 0.00 0.00 0.00 0.00 0.00 0.00 0.00 0.00 0.00 0.00 0.00 0.00 0.00 0.00 0.00 0.00 0.00 0.00 0.00 0.00 0.00 0.00 0.00 0.00 0.00 0.00 0.00 0.00 0.00 0.00 0.00 0.00 0.00 0.00 0.00 0.00 0.00 0.00 0.00 0.00 0.00 0.00 -0.00 -0.00 0.00 0.00 0.00 0.00 0.00 0.00 0.00 0.00 0.00 0.00 0.00 0.00 0.00 0.00 0.00 0.00 0.00 0.00 0.00 0.00 0.00 0.00 0.00 0.00
-0.21 -0.16 -0.10 -0.03 -0.00 -0.00 0.00 0.00 0.00 0.00 0.00 0.00 0.00 0.00 0.00 0.00 0.00 0.01 0.02 0.01 0.01 0.00 0.00 0.00 0.00 0.00 0.00 0.00 0.00 0.00 0.00 0.00 0.00 0.00 0.00 0.00 0.00 0.00 0.00 0.00 0.00 0.00 0.00 0.00 0.00 0.00 0.00 0.00 0.00 0.00 0.00 0.00 0.00 0.00 0.00 0.00 0.00 0.00 0.00 0.00 0.00 0.00 0.00 0.00 -0.00 -0.00 -0.00 -0.00 0.00 0.00 0.00 0.00 0.00 0.00 0.00 0.00 0.00 -0.00 -0.00 0.00 0.00 0.00 0.00 0.00 0.00 0.00 0.00 0.00 0.00 0.00 0.00 0.00 0.00 0.00 0.00 0.00 0.00 0.00 0.00 0.00 0.00 0.00 0.00
-0.16 -0.09 -0.10 -0.02 -0.01 -0.01 0.00 0.00 0.00 0.00 0.00 0.00 0.00 0.00 0.00 0.00 0.00 0.00 0.01 0.02 0.02 0.00 0.00 0.00 0.00 0.00 0.00 0.00 0.00 0.00 0.00 0.00 0.00 0.00 0.00 0.00 0.00 0.00 0.00 0.00 0.00 0.00 0.00 0.00 0.00 0.00 0.00 0.00 0.00 0.00 0.00 0.00 0.00 0.00 0.00 0.00 0.00 0.00 0.00 0.00 0.00 0.00 0.00 0.00 -0.01 -0.01 0.00 -0.00 0.00 0.00 0.00 0.00 0.00 0.00 0.00 0.00 0.00 0.00 -0.00 0.00 0.00 0.00 0.00 0.00 0.00 0.00 0.00 0.00 0.00 0.00 0.00 0.00 0.00 0.00 0.00 0.00 0.00 0.00 0.00 0.00 0.00 0.00 0.00
-0.29 -0.19 -0.09 -0.01 -0.00 -0.00 0.00 0.00 0.00 0.00 0.00 0.00 0.00 0.00 0.00 0.00 0.00 0.00 0.00 0.00 0.00 0.00 0.00 0.00 0.00 0.00 0.00 0.00 0.00 0.00 0.00 0.00 0.00 0.00 0.00 0.00 0.00 0.00 0.00 0.00 0.00 0.00 0.00 0.00 0.00 0.00 0.00 0.00 0.00 0.00 0.00 0.00 0.00 0.00 0.00 0.00 0.00 0.00 0.00 0.00 0.00 0.00 0.00 -0.00 -0.02 -0.02 -0.00 -0.01 0.00 0.00 0.00 0.00 0.00 0.00 0.00 0.00 0.00 0.00 -0.00 0.00 0.00 0.00 0.00 0.00 0.00 0.00 0.00 0.00 0.00 0.00 0.00 0.00 0.00 0.00 0.00 0.00 0.00 0.00 0.00 0.00 0.00 0.00 0.00
-0.32 -0.23 -0.20 -0.09 0.03 0.03 0.00 0.00 0.00 0.00 0.00 0.00 0.00 0.00 0.00 0.00 0.00 0.00 0.00 0.00 0.00 0.00 0.00 0.00 0.00 0.00 0.00 0.00 0.00 0.00 0.00 0.00 0.00 0.00 0.00 0.00 0.00 0.00 0.00 0.00 0.00 0.00 0.00 0.00 0.00 0.00 0.00 0.00 0.00 0.00 0.00 0.00 0.00 0.00 0.00 0.00 0.00 0.00 0.00 0.00 0.00 0.00 0.00 -0.07 -0.10 -0.10 -0.01 -0.01 0.00 0.00 0.00 0.00 0.00 0.00 0.00 0.00 0.00 0.00 0.00 0.00 0.00 0.00 0.00 0.00 0.00 0.00 0.00 0.00 0.00 0.00 0.00 0.00 0.00 0.00 0.00 0.00 0.00 0.00 0.00 0.00 0.00 0.00 0.00
-0.14 -0.16 -0.22 -0.12 0.00 0.00 0.16 0.08 0.00 0.00 0.00 0.00 0.00 0.00 0.00 0.00 0.00 0.00 0.00 0.00 0.00 0.00 0.00 0.00 0.00 0.00 0.00 0.00 0.00 0.00 0.00 0.00 0.00 0.00 0.00 0.00 0.00 0.00 0.00 0.00 0.00 0.00 0.00 0.00 0.00 0.00 0.00 0.00 0.00 0.00 0.00 0.00 0.00 0.00 0.00 0.00 0.00 0.00 0.00 0.00 0.00 0.00 0.00 -0.15 -0.06 -0.06 -0.01 -0.01 0.00 0.00 0.00 0.00 0.00 0.00 0.00 0.00 0.00 0.00 0.00 0.00 0.00 0.01 0.00 0.00 0.00 0.00 0.00 0.00 0.00 0.00 0.00 0.00 0.00 0.00 0.00 0.00 0.00 0.00 0.00 0.00 0.00 0.00 0.00
-0.08 -0.16 -0.20 -0.16 0.06 0.06 0.25 0.17 0.17 0.17 0.18 0.08 0.09 0.09 0.02 0.00 0.00 0.00 -0.00 0.00 0.00 0.00 0.00 0.00 0.00 0.00 0.00 0.00 0.00 0.00 0.00 0.00 0.00 0.00 0.00 0.00 0.00 0.00 0.00 0.00 0.00 0.00 0.00 0.00 0.00 0.00 0.00 0.00 0.00 0.00 0.00 0.00 0.00 0.00 0.00 0.00 0.00 0.00 0.00 0.00 0.00 0.00 0.00 -0.17 -0.04 -0.04 -0.03 -0.01 0.00 0.00 0.00 0.00 0.00 0.00 0.00 0.00 0.00 0.00 0.00 0.00 0.00 0.01 0.00 0.00 0.00 0.00 0.00 0.00 0.00 0.00 0.00 0.00 0.00 0.00 0.00 0.00 0.00 0.00 0.00 0.00 0.00 0.00 0.00
-0.04 -0.10 -0.10 -0.23 -0.13 -0.13 0.42 0.25 0.15 0.15 0.14 0.10 0.05 0.05 0.09 0.00 0.00 0.00 -0.00 0.00 0.00 0.00 0.00 0.00 0.00 0.00 0.00 0.00 0.00 0.00 0.00 0.00 0.00 0.00 0.00 0.00 0.00 0.00 0.00 0.00 0.00 0.00 0.00 0.00 0.00 0.00 0.00 0.00 0.00 0.00 0.00 0.00 0.00 0.00 0.00 0.00 0.00 0.00 0.00 0.00 0.00 0.00 0.00 -0.08 -0.03 -0.03 -0.04 -0.01 0.00 0.00 0.00 0.00 0.00 0.00 0.00 0.00 0.00 0.00 0.00 0.00 0.00 0.00 0.00 0.00 0.00 0.00 0.00 0.00 0.00 0.00 0.00 0.00 0.00 0.00 0.00 0.00 0.00 0.00 0.00 0.00 0.00 0.00 0.00
-0.02 -0.06 -0.10 -0.16 -0.23 -0.23 -0.20 0.25 0.25 0.25 0.09 0.08 0.08 0.08 0.10 0.11 0.11 0.00 -0.00 -0.00 -0.00 0.00 0.00 0.00 0.00 0.00 0.00 0.00 0.00 0.00 0.00 0.00 0.00 0.00 0.00 0.00 0.00 0.00 0.00 0.00 0.00 0.00 0.00 0.00 0.00 0.00 0.00 0.00 0.00 0.00 0.00 0.00 0.00 0.00 0.00 0.00 0.00 0.00 0.00 0.00 0.00 0.00 0.00 -0.12 -0.08 -0.08 -0.05 -0.01 0.00 0.00 0.00 0.00 0.00 0.00 0.00 0.00 0.00 0.00 0.00 0.00 0.00 0.00 0.01 0.00 0.00 0.00 0.00 0.00 0.00 0.00 0.00 0.00 0.00 0.00 0.00 0.00 0.00 0.00 0.00 0.00 0.00 0.00 0.00
-0.01 -0.03 -0.07 -0.10 -0.12 -0.12 -0.20 -0.02 0.06 0.06 0.08 0.10 0.11 0.11 0.00 0.00 0.00 0.00 0.00 -0.00 -0.00 -0.01 -0.01 0.00 0.00 0.00 0.00 0.00 0.00 0.00 0.00 0.00 0.00 0.00 0.00 0.00 0.00 0.00 0.00 0.00 0.00 0.00 0.00 0.00 0.00 0.00 0.00 0.00 0.00 0.00 0.00 0.00 0.00 0.00 0.00 0.00 0.00 0.00 0.00 0.00 0.00 0.00 0.00 -0.11 -0.02 -0.02 -0.01 -0.01 -0.00 -0.00 0.00 0.00 0.00 0.00 0.00 0.00 0.00 0.00 0.00 0.00 0.00 0.00 0.00 0.00 0.00 0.00 0.00 0.00 0.00 0.00 0.00 0.00 0.00 0.00 0.00 0.00 0.00 0.00 0.00 0.00 0.00 0.00 0.00
-0.01 -0.02 -0.05 -0.07 -0.08 -0.08 -0.07 -0.01 0.01 0.01 0.11 0.24 0.15 0.15 0.03 0.00 0.00 0.00 0.00 0.00 0.00 -0.03 -0.04 -0.00 0.00 0.00 0.00 0.00 0.00 0.00 0.00 0.00 0.00 0.00 0.00 0.00 0.00 0.00 0.00 0.00 0.00 0.00 0.00 0.00 0.00 0.00 0.00 0.00 0.00 0.00 0.00 0.00 0.00 0.00 0.00 0.00 0.00 0.00 0.00 0.00 0.00 0.00 0.00 0.00 -0.00 -0.00 -0.00 -0.01 -0.00 -0.00 0.00 0.00 0.00 0.00 0.00 0.00 0.00 0.00 0.00 0.00 0.00 0.00 0.00 0.00 0.00 0.00 0.00 0.00 0.00 0.00 0.00 0.00 0.00 0.00 0.00 0.00 0.00 0.00 0.00 0.00 0.00 0.00 0.00
-0.00 -0.02 -0.04 -0.07 -0.08 -0.08 -0.06 -0.05 -0.04 -0.04 0.03 0.34 0.30 0.30 0.17 0.11 0.11 0.01 0.00 0.00 0.00 -0.00 -0.03 -0.03 0.00 0.00 0.00 0.00 0.00 0.00 0.00 0.00 0.00 0.00 0.00 0.00 0.00 0.00 0.00 0.00 0.00 0.00 0.00 0.00 0.00 0.00 0.00 0.00 0.00 0.00 0.00 0.00 0.00 0.00 0.00 0.00 0.00 0.00 0.00 0.00 0.00 0.00 0.00 0.00 0.00 0.00 0.00 -0.00 0.00 0.00 0.00 0.00 0.00 0.00 0.00 0.00 0.00 0.00 0.00 0.00 0.00 0.00 0.00 0.00 0.00 0.00 0.00 0.00 0.00 0.00 0.00 0.00 0.00 0.00 0.00 0.00 0.00 0.00 0.00 0.00 0.00 0.00 0.00
0.00 0.00 -0.03 -0.06 -0.07 -0.07 -0.07 -0.07 -0.05 -0.05 -0.03 0.18 0.37 0.37 0.32 0.20 0.20 0.10 0.00 0.00 0.00 0.00 -0.00 -0.02 0.00 0.00 0.00 0.00 0.00 0.00 0.00 0.00 0.00 0.00 0.00 0.00 0.00 0.00 0.00 0.00 0.00 0.00 0.00 0.00 0.00 0.00 0.00 0.00 0.00 0.00 0.00 0.00 0.00 0.00 0.00 0.00 0.00 0.00 0.00 0.00 0.00 0.00 0.00 0.00 0.00 0.00 0.00 0.00 0.00 0.00 0.00 0.00 0.00 0.00 0.00 0.00 0.00 0.00 0.00 0.00 0.00 0.00 0.00 0.00 0.00 0.00 0.00 0.00 0.00 0.00 0.00 0.00 0.00 0.00 0.00 0.00 0.00 0.00 0.00 0.00 0.00 0.00 0.00
-0.03 -0.01 -0.04 -0.06 -0.07 -0.07 -0.07 -0.08 -0.07 -0.07 -0.04 0.04 0.18 0.18 0.35 0.33 0.33 0.26 0.03 0.00 0.00 0.01 0.00 0.00 0.00 0.00 0.00 0.00 0.00 0.00 0.00 0.00 0.00 0.00 0.00 0.00 0.00 0.00 0.00 0.00 0.00 0.00 0.00 0.00 0.00 0.00 0.00 0.00 0.00 0.00 0.00 0.00 0.00 0.00 0.00 0.00 0.00 0.00 0.00 0.00 0.00 0.00 0.00 0.00 0.00 0.00 0.00 0.00 0.00 0.00 0.00 0.00 0.00 0.00 0.00 0.00 0.00 0.00 0.00 0.00 0.00 0.00 0.00 0.00 0.00 0.00 0.00 0.00 0.00 0.00 0.00 0.00 0.00 0.00 0.00 0.00 0.00 0.00 0.00 0.00 0.00 0.00 0.00
-0.00 -0.04 -0.07 -0.06 -0.08 -0.08 -0.08 -0.09 -0.09 -0.09 -0.06 -0.00 0.05 0.05 0.13 0.41 0.41 0.43 0.18 0.19 0.19 0.09 0.01 0.01 0.01 0.01 0.00 0.00 0.00 0.00 0.00 0.00 0.00 0.00 0.00 0.00 0.00 0.00 0.00 0.00 0.00 0.00 0.00 0.00 0.00 0.00 0.00 0.00 0.00 0.00 0.00 0.00 0.00 0.00 0.00 0.00 0.00 0.00 0.00 0.00 0.00 0.00 0.00 0.00 0.00 0.00 0.00 0.00 0.00 0.00 0.00 0.00 0.00 0.00 0.00 0.00 0.00 0.00 0.00 0.00 0.00 0.00 0.00 0.00 0.00 0.00 0.00 0.00 0.00 0.00 0.00 0.00 0.00 0.00 0.00 0.00 0.00 0.00 0.00 0.00 0.00 0.00 0.00
0.00 0.00 -0.05 -0.08 -0.12 -0.12 -0.12 -0.10 -0.11 -0.11 -0.09 -0.06 0.01 0.01 0.04 0.26 0.26 0.37 0.40 0.30 0.30 0.20 0.07 0.03 0.01 0.01 0.00 0.00 0.00 0.00 0.00 0.00 0.00 0.00 0.00 0.00 0.00 0.00 0.00 0.00 0.00 0.00 0.00 0.00 0.00 0.00 0.00 0.00 0.00 0.00 0.00 0.00 0.00 0.00 0.00 0.00 0.00 0.00 0.00 0.00 0.00 0.00 0.00 0.00 0.00 0.00 0.00 0.00 0.00 0.00 0.00 0.00 0.00 0.00 0.00 0.00 0.00 0.01 0.01 0.00 0.00 0.00 0.00 0.00 0.00 0.00 0.00 0.00 0.00 0.00 0.00 0.00 0.00 0.00 0.00 0.00 0.00 0.00 0.00 0.00 0.00 0.00 0.00
0.01 0.00 -0.09 -0.09 -0.15 -0.15 -0.15 -0.12 -0.10 -0.10 -0.12 -0.09 -0.00 -0.00 0.01 0.09 0.09 0.17 0.25 0.14 0.14 0.25 0.22 0.11 0.05 0.05 0.01 0.00 0.00 0.00 0.00 0.00 0.00 0.00 0.00 0.00 0.00 0.00 0.00 0.00 0.00 0.00 0.00 0.00 0.00 0.00 0.00 0.00 0.00 0.00 0.00 0.00 0.00 0.00 0.00 0.00 0.00 0.00 0.00 0.00 0.00 0.00 0.00 0.00 0.00 0.00 0.00 0.00 -0.00 -0.00 -0.00 0.00 0.00 0.00 0.00 0.00 0.00 0.00 0.01 0.01 0.01 0.00 0.00 0.00 0.00 0.00 0.00 0.00 0.00 0.00 0.00 0.00 0.00 0.00 0.00 0.00 0.00 0.00 0.00 0.00 0.00 0.00 0.00
0.03 0.02 -0.03 -0.09 -0.18 -0.18 -0.24 -0.15 -0.13 -0.13 -0.13 -0.17 -0.01 -0.01 0.01 0.01 0.01 0.10 0.09 0.09 0.09 0.09 0.12 0.19 0.12 0.12 0.06 0.01 0.01 0.01 0.00 0.00 0.00 0.00 0.00 0.00 0.00 0.00 0.00 0.00 0.00 0.00 0.00 0.00 0.00 0.00 0.00 0.00 0.00 0.00 0.00 0.00 0.00 0.00 0.00 0.00 0.00 0.00 0.00 0.00 0.00 0.00 0.00 0.00 0.00 0.00 0.00 0.00 -0.01 -0.01 -0.00 -0.00 -0.00 -0.00 0.00 0.00 0.00 0.00 0.00 0.01 0.01 0.01 0.00 -0.00 -0.00 -0.00 -0.00 0.00 0.00 0.00 0.00 0.00 0.00 0.00 0.00 0.00 0.00 0.00 0.00 0.00 0.00 0.00 0.00
0.05 0.04 0.02 -0.04 -0.14 -0.14 -0.25 -0.18 -0.14 -0.14 -0.12 -0.17 -0.03 -0.03 0.00 0.01 0.01 0.03 0.01 0.07 0.07 0.06 0.05 0.08 0.12 0.12 0.08 0.02 0.01 0.01 0.00 0.00 0.00 0.00 0.00 0.00 0.00 0.00 0.00 0.00 0.00 0.00 0.00 0.00 0.00 0.00 0.00 0.00 0.00 0.00 0.00 0.00 0.00 0.00 0.00 0.00 0.00 0.00 0.00 0.00 0.00 0.00 0.00 0.00 0.00 0.00 0.00 0.00 -0.01 -0.01 -0.01 -0.00 0.01 0.01 0.01 0.00 0.00 0.00 0.00 0.00 0.00 0.01 0.00 0.00 -0.00 -0.00 -0.00 -0.00 0.00 0.00 0.00 0.00 0.00 0.00 0.00 0.00 0.00 0.00 0.00 0.00 0.00 0.00 0.00
0.05 0.07 0.09 0.07 0.00 0.00 -0.19 -0.19 -0.16 -0.16 -0.12 -0.18 -0.06 -0.06 0.00 0.01 0.01 0.01 0.01 0.02 0.02 0.05 0.04 0.02 0.03 0.03 0.04 0.02 0.01 0.01 0.00 0.00 0.00 0.00 0.00 0.00 0.00 0.00 0.00 0.00 0.00 0.00 0.00 0.00 0.00 0.00 0.00 0.00 0.00 0.00 0.00 0.00 0.00 0.00 0.00 0.00 0.00 0.00 0.00 0.00 0.00 0.00 0.00 0.00 -0.00 -0.00 -0.00 0.00 -0.02 -0.02 -0.01 -0.00 0.02 0.02 0.03 0.01 0.01 0.00 0.00 0.00 0.00 0.00 0.00 0.00 -0.00 -0.00 -0.00 -0.00 0.00 0.00 0.00 0.00 0.00 0.00 0.00 0.00 0.00 0.00 0.00 0.00 0.00 0.00 0.00
0.07 0.07 0.05 0.06 0.07 0.07 -0.03 -0.14 -0.12 -0.12 -0.12 -0.16 -0.22 -0.22 -0.03 0.01 0.01 0.01 0.01 0.02 0.02 0.04 0.04 0.02 0.01 0.01 0.01 0.02 0.01 0.01 0.00 0.00 0.00 0.00 0.00 0.00 0.00 0.00 0.00 0.00 0.00 0.00 0.00 0.00 0.00 0.00 0.00 0.00 0.00 0.00 0.00 0.00 0.00 0.00 0.00 0.00 0.00 0.00 0.00 0.00 0.00 0.00 0.00 0.00 -0.00 -0.00 -0.01 0.00 -0.01 -0.01 -0.01 -0.00 0.02 0.02 0.04 0.03 0.03 0.01 0.00 0.00 0.00 0.00 0.00 0.00 -0.00 -0.00 -0.00 -0.00 0.00 0.00 0.00 0.00 0.00 0.00 0.00 0.00 0.00 0.00 0.00 0.00 0.00 0.00 0.00
0.10 0.07 0.06 0.04 0.03 0.03 0.02 -0.06 -0.13 -0.13 -0.17 -0.15 -0.19 -0.19 -0.12 -0.01 -0.01 -0.02 0.01 0.02 0.02 0.03 0.03 0.05 0.02 0.02 0.02 0.04 0.02 0.02 0.00 0.00 0.00 0.00 0.00 0.00 0.00 0.00 0.00 0.00 0.00 0.00 0.00 0.00 0.00 0.00 0.00 0.00 0.00 0.00 0.00 0.00 0.00 0.00 0.00 0.00 0.00 0.00 0.00 0.00 0.00 0.00 0.00 0.00 0.00 0.00 0.00 -0.00 -0.02 -0.02 -0.03 -0.00 0.01 0.01 0.04 0.05 0.05 0.03 0.03 0.01 0.01 0.00 0.00 0.00 -0.00 -0.00 -0.00 -0.00 0.00 0.00 0.00 0.00 0.00 0.00 0.00 0.00 0.00 0.00 0.00 0.00 0.00 0.00 0.00
0.11 0.10 0.09 0.04 0.03 0.03 0.02 -0.07 -0.12 -0.12 -0.02 -0.01 -0.06 -0.06 -0.26 -0.27 -0.27 -0.17 0.00 0.01 0.01 0.02 0.02 0.02 0.03 0.03 0.03 0.03 0.02 0.02 0.01 0.00 0.00 0.00 0.00 0.00 0.00 0.00 0.00 0.00 0.00 0.00 0.00 0.00 0.00 0.00 0.00 0.00 0.00 0.00 0.00 0.00 0.00 0.00 0.00 0.00 0.00 0.00 0.00 0.00 0.00 0.00 0.00 0.00 0.00 0.00 0.00 -0.01 -0.04 -0.04 -0.05 -0.02 0.00 0.00 0.02 0.05 0.05 0.08 0.07 0.04 0.04 0.01 0.02 0.01 0.00 0.00 0.00 0.00 0.00 0.00 0.00 0.00 0.00 0.00 0.00 0.00 0.00 0.00 0.00 0.00 0.00 0.00 0.00
0.17 0.12 0.12 0.09 0.06 0.06 0.01 -0.04 -0.04 -0.04 0.04 0.14 0.12 0.12 -0.17 -0.18 -0.18 -0.23 0.00 0.02 0.02 0.02 0.02 0.02 0.02 0.02 0.04 0.04 0.03 0.03 0.03 0.01 0.01 0.01 0.00 0.01 0.01 0.00 0.00 0.00 0.00 0.00 0.00 0.00 0.00 0.00 0.00 0.00 0.00 0.00 0.00 0.00 0.00 0.00 0.00 0.00 0.00 0.00 0.00 0.00 0.00 0.00 0.00 0.00 0.00 0.00 0.00 -0.00 -0.03 -0.03 -0.09 -0.04 -0.00 -0.00 0.01 0.03 0.03 0.10 0.10 0.08 0.08 0.04 0.04 0.03 0.01 0.01 0.00 0.00 0.00 0.00 0.00 0.00 0.00 0.00 0.00 0.00 0.00 0.00 0.00 0.00 0.00 0.00 0.00
0.19 0.23 0.21 0.12 0.11 0.11 0.08 0.00 0.01 0.01 0.05 0.18 0.19 0.19 0.15 -0.08 -0.08 -0.16 -0.10 0.05 0.05 0.04 0.03 0.03 0.02 0.02 0.07 0.05 0.04 0.04 0.03 0.03 0.02 0.02 0.01 0.01 0.01 0.00 0.00 0.00 0.00 0.00 0.00 0.00 0.00 0.00 0.00 0.00 0.00 0.00 0.00 0.00 0.00 0.00 0.00 0.00 0.00 0.00 0.00 0.00 0.00 0.00 0.00 0.00 0.00 0.00 0.00 0.00 0.00 0.00 -0.09 -0.08 -0.04 -0.04 0.01 0.01 0.01 0.04 0.07 0.10 0.10 0.10 0.08 0.04 0.02 0.02 0.00 0.00 0.00 0.00 0.00 0.00 0.00 0.00 0.00 0.00 0.00 0.00 0.00 0.00 0.00 0.00 0.00
0.10 0.26 0.25 0.22 0.20 0.20 0.15 0.08 0.04 0.04 0.03 0.15 0.21 0.21 0.24 0.16 0.16 0.10 0.06 0.13 0.13 0.10 0.10 0.15 0.15 0.15 0.28 0.14 0.10 0.10 0.05 0.05 0.03 0.03 0.02 0.04 0.04 0.05 0.01 0.01 0.01 0.00 0.00 0.00 0.00 0.00 0.00 0.00 0.00 0.00 0.00 0.00 0.00 0.00 0.00 0.00 0.00 0.00 0.00 0.00 0.00 0.00 0.00 0.00 -0.00 -0.00 -0.01 -0.00 0.00 0.00 -0.00 -0.07 -0.04 -0.04 -0.02 0.01 0.01 0.01 0.01 0.06 0.06 0.09 0.08 0.04 0.03 0.03 0.02 0.01 0.00 0.00 0.00 0.00 0.00 0.00 0.00 0.00 0.00 0.00 0.00 0.00 0.00 0.00 0.00
-0.03 0.07 0.18 0.29 0.34 0.34 0.28 0.24 0.12 0.12 0.06 0.11 0.18 0.18 0.22 0.36 0.36 0.30 0.19 0.24 0.24 0.24 0.24 0.26 0.30 0.30 0.32 0.19 0.13 0.13 0.11 0.12 0.09 0.09 0.05 0.09 0.09 0.09 0.09 0.04 0.04 0.03 0.01 0.02 0.02 0.02 0.01 0.00 0.00 0.00 0.00 0.00 0.00 0.00 0.00 0.00 0.00 0.00 0.00 0.00 0.00 0.00 0.00 0.00 0.00 0.00 -0.00 -0.00 0.00 0.00 0.00 -0.02 -0.01 -0.01 -0.02 -0.02 -0.02 0.00 0.01 0.01 0.01 0.07 0.07 0.07 0.04 0.04 0.02 0.01 0.00 0.00 0.00 0.00 0.00 0.00 0.00 0.00 0.00 0.00 0.00 0.00 0.00 0.00 0.00
-0.04 -0.01 -0.03 0.04 0.39 0.39 0.43 0.39 0.29 0.29 0.19 0.15 0.18 0.18 0.17 0.26 0.26 0.32 0.30 0.26 0.26 0.23 0.23 0.27 0.18 0.18 0.24 0.22 0.17 0.17 0.14 0.11 0.09 0.09 0.07 0.07 0.07 0.10 0.08 0.13 0.13 0.10 0.04 0.05 0.04 0.04 0.02 0.01 0.00 0.00 0.00 0.00 0.00 0.00 0.00 0.00 0.00 0.00 0.00 0.00 0.00 0.00 0.00 0.00 0.00 0.00 0.00 0.00 0.00 0.00 0.00 -0.00 -0.00 -0.00 -0.02 -0.06 -0.06 -0.02 0.00 0.00 0.00 0.01 0.04 0.06 0.07 0.07 0.02 0.01 0.00 0.00 0.00 0.00 0.00 0.00 -0.00 -0.00 -0.00 0.00 0.00 0.00 0.00 0.00 0.00
-0.04 -0.02 -0.06 -0.11 0.05 0.05 0.23 0.33 0.39 0.39 0.31 0.18 0.17 0.17 0.18 0.20 0.20 0.25 0.31 0.31 0.31 0.24 0.21 0.21 0.22 0.22 0.21 0.21 0.23 0.23 0.21 0.20 0.09 0.09 0.08 0.09 0.09 0.06 0.06 0.14 0.14 0.18 0.11 0.08 0.02 0.02 0.02 0.02 0.01 0.01 0.00 0.00 0.00 0.00 0.00 0.00 0.00 0.00 0.00 0.00 0.00 0.00 0.00 0.00 0.00 0.00 0.00 0.00 0.00 0.00 0.00 0.00 0.00 0.00 -0.01 -0.07 -0.07 -0.08 -0.09 -0.00 -0.00 0.00 -0.00 0.03 0.08 0.08 0.03 0.01 0.01 0.01 0.00 0.00 -0.00 -0.00 -0.00 -0.00 -0.00 -0.00 0.00 0.00 0.00 0.00 0.00
-0.08 -0.04 -0.04 -0.07 -0.07 -0.07 -0.00 0.06 0.24 0.24 0.34 0.21 0.19 0.19 0.19 0.20 0.20 0.19 0.23 0.30 0.30 0.30 0.32 0.31 0.26 0.26 0.25 0.24 0.22 0.22 0.25 0.29 0.13 0.13 0.13 0.10 0.10 0.05 0.04 0.09 0.09 0.14 0.07 0.06 0.01 0.01 0.01 0.01 0.00 0.00 0.00 0.00 0.00 0.00 0.00 0.00 0.00 0.00 0.00 0.00 0.00 0.00 0.00 0.00 0.00 0.00 0.00 0.00 0.00 0.00 0.00 0.00 0.00 0.00 0.00 -0.06 -0.06 -0.14 -0.18 -0.03 -0.03 -0.00 -0.00 -0.00 0.03 0.03 0.02 0.00 0.00 0.00 0.00 0.00 0.00 0.00 -0.00 -0.01 -0.01 -0.01 -0.00 -0.00 -0.00 0.00 0.00
-0.31 -0.05 -0.02 -0.03 -0.09 -0.09 -0.09 0.01 0.05 0.05 0.15 0.07 0.15 0.15 0.09 0.14 0.14 0.11 0.14 0.24 0.24 0.36 0.35 0.33 0.31 0.31 0.27 0.24 0.26 0.26 0.27 0.26 0.24 0.24 0.20 0.17 0.17 0.13 0.04 0.05 0.05 0.07 0.07 0.07 0.06 0.06 0.01 0.01 0.01 0.01 0.00 0.00 0.00 0.00 0.00 0.00 0.00 0.00 0.00 0.00 0.00 0.00 0.00 0.00 0.00 0.00 0.00 0.00 0.00 0.00 0.00 0.00 0.00 0.00 0.00 0.00 0.00 -0.05 -0.17 -0.20 -0.20 -0.02 -0.02 -0.00 -0.00 -0.00 0.01 0.00 0.00 0.00 0.00 0.00 0.00 0.00 0.00 -0.00 -0.00 -0.01 -0.01 -0.01 -0.01 0.00 0.00
-0.54 -0.38 -0.09 -0.04 -0.03 -0.03 -0.13 -0.13 -0.10 -0.10 0.06 0.04 0.05 0.05 0.20 0.17 0.17 0.19 0.07 0.13 0.13 0.27 0.44 0.49 0.45 0.45 0.32 0.35 0.36 0.36 0.28 0.25 0.23 0.23 0.17 0.17 0.17 0.17 0.10 0.07 0.07 0.05 0.03 0.04 0.06 0.06 0.04 0.02 0.01 0.01 0.00 0.00 0.00 0.00 0.00 0.00 0.00 0.00 0.00 0.00 0.00 0.00 0.00 0.00 0.00 0.00 0.00 0.00 0.00 0.00 0.00 0.00 0.00 0.00 0.00 0.00 0.00 0.00 -0.07 -0.19 -0.19 -0.20 -0.05 -0.01 0.00 0.00 -0.00 0.00 0.00 0.00 0.00 0.00 0.00 0.00 0.00 0.01 0.01 -0.02 -0.02 -0.03 -0.03 -0.01 0.00
-0.36 -0.52 -0.50 -0.31 -0.26 -0.26 -0.17 -0.12 -0.24 -0.24 -0.22 -0.14 0.03 0.03 0.25 0.26 0.26 0.29 0.34 0.39 0.39 0.41 0.47 0.47 0.59 0.59 0.61 0.53 0.50 0.50 0.41 0.27 0.22 0.22 0.16 0.10 0.10 0.10 0.09 0.09 0.09 0.05 0.04 0.01 0.01 0.01 0.00 0.00 0.01 0.01 0.00 0.02 0.01 0.01 0.00 0.04 0.04 0.00 0.00 0.00 0.00 0.00 0.00 0.00 0.00 0.00 0.00 0.00 0.00 0.00 0.00 0.00 0.00 0.00 0.00 0.00 0.00 0.00 0.00 0.00 0.00 -0.08 -0.08 -0.13 -0.02 -0.02 -0.01 -0.01 -0.00 -0.00 0.00 0.00 0.00 0.00 0.00 0.00 0.00 0.01 0.01 0.01 0.01 -0.03 -0.01
-0.19 -0.29 -0.56 -0.53 -0.39 -0.39 -0.33 -0.30 -0.49 -0.49 -0.35 -0.29 -0.20 -0.20 0.12 0.19 0.19 0.22 0.28 0.31 0.31 0.33 0.33 0.25 0.28 0.28 0.33 0.40 0.42 0.42 0.40 0.29 0.16 0.16 0.14 0.09 0.09 0.06 0.05 0.06 0.06 0.04 0.05 0.03 0.01 0.01 0.01 0.00 0.00 0.00 0.00 0.01 0.01 0.01 0.05 0.07 0.07 0.06 0.01 0.00 0.00 0.00 0.00 0.00 0.00 0.00 0.00 0.00 0.00 0.00 0.00 0.00 0.00 0.00 0.00 0.00 0.00 0.00 0.00 0.00 0.00 0.00 -0.01 -0.08 -0.07 -0.07 -0.02 -0.02 -0.02 -0.02 -0.01 0.02 0.00 0.00 0.00 0.00 0.00 0.00 0.01 0.01 0.01 0.01 -0.01
-0.08 -0.18 -0.36 -0.43 -0.45 -0.45 -0.37 -0.38 -0.54 -0.54 -0.60 -0.40 -0.31 -0.31 -0.23 0.02 0.02 0.06 0.09 0.27 0.27 0.34 0.21 0.25 0.25 0.25 0.25 0.30 0.26 0.26 0.24 0.21 0.15 0.15 0.12 0.09 0.09 0.04 0.03 0.03 0.03 0.03 0.04 0.03 0.01 0.01 0.01 0.00 0.00 0.00 0.00 0.00 0.00 0.00 0.02 0.05 0.05 0.03 0.04 0.00 0.00 0.00 0.00 0.00 0.00 0.00 0.00 0.00 0.00 0.00 0.00 0.00 0.00 0.00 0.00 0.00 0.00 0.00 0.00 0.00 0.00 0.00 0.00 -0.02 -0.06 -0.06 -0.03 -0.02 -0.02 -0.02 -0.03 -0.03 0.01 0.01 0.01 0.01 0.01 0.00 0.00 0.01 0.01 0.01 0.00
-0.01 -0.06 -0.23 -0.25 -0.28 -0.28 -0.33 -0.34 -0.40 -0.40 -0.50 -0.59 -0.46 -0.46 -0.36 -0.18 -0.18 -0.12 -0.03 0.04 0.04 0.14 0.03 0.09 0.12 0.12 0.16 0.19 0.30 0.30 0.26 0.24 0.29 0.29 0.22 0.16 0.16 0.08 0.05 0.02 0.02 0.03 0.03 0.03 0.02 0.02 0.01 0.00 0.00 0.00 0.00 0.00 0.00 0.00 0.00 0.05 0.05 0.02 0.00 0.00 0.00 0.00 0.00 0.00 0.00 0.00 0.00 0.00 0.00 0.00 0.00 0.00 0.00 0.00 0.00 0.00 0.00 0.00 0.00 0.00 0.00 0.00 0.00 0.00 -0.01 -0.01 -0.01 -0.01 -0.02 -0.02 -0.02 -0.02 -0.00 -0.00 0.01 0.01 0.01 0.01 0.00 0.00 0.00 0.01 0.02
-0.06 -0.05 -0.05 -0.14 -0.17 -0.17 -0.06 -0.18 -0.22 -0.22 -0.31 -0.58 -0.55 -0.55 -0.45 -0.27 -0.27 -0.19 -0.12 -0.03 -0.03 0.00 0.00 0.00 0.01 0.01 0.01 0.04 0.15 0.15 0.20 0.16 0.24 0.24 0.32 0.29 0.29 0.26 0.13 0.06 0.06 0.09 0.02 0.02 0.02 0.02 0.02 0.01 0.00 0.00 0.00 0.00 0.00 0.00 0.00 0.00 0.00 0.00 0.00 0.01 0.01 0.03 0.01 0.00 0.00 0.00 0.00 0.00 0.00 0.00 0.00 0.00 0.00 0.00 0.00 0.00 0.00 0.00 0.00 0.00 0.00 0.00 0.00 0.00 0.00 0.00 0.00 0.00 0.00 0.00 0.00 -0.01 -0.01 -0.01 0.00 0.00 0.00 0.01 0.00 0.00 0.00 0.00 0.01
-0.04 -0.08 -0.09 -0.07 -0.06 -0.06 -0.04 -0.08 -0.15 -0.15 -0.18 -0.45 -0.53 -0.53 -0.46 -0.35 -0.35 -0.23 -0.17 -0.12 -0.12 -0.03 0.01 -0.02 -0.02 -0.02 -0.05 -0.02 0.04 0.04 0.09 0.25 0.27 0.27 0.42 0.39 0.39 0.30 0.20 0.18 0.18 0.11 0.06 0.03 0.02 0.02 0.02 0.02 0.01 0.01 0.00 0.00 0.00 0.00 0.00 0.00 0.00 0.00 0.00 0.00 0.00 0.02 0.03 0.03 0.01 0.01 0.01 0.00 0.00 0.00 0.00 0.00 0.00 0.00 0.00 0.00 0.00 0.00 0.00 0.00 0.00 0.00 0.00 0.00 0.00 0.00 0.01 0.01 0.01 0.01 0.01 0.01 0.00 0.00 -0.00 0.00 0.00 0.00 0.00 -0.00 -0.00 0.00 0.00
-0.01 -0.03 -0.06 -0.10 -0.10 -0.10 -0.09 -0.12 -0.18 -0.18 -0.18 -0.15 -0.27 -0.27 -0.36 -0.41 -0.41 -0.36 -0.28 -0.22 -0.22 -0.16 -0.07 -0.04 -0.04 -0.04 -0.07 -0.07 -0.04 -0.04 0.17 0.24 0.31 0.31 0.53 0.51 0.51 0.41 0.26 0.30 0.30 0.20 0.11 0.04 0.03 0.03 0.02 0.04 0.02 0.02 0.01 0.01 0.00 0.00 0.00 0.00 0.00 0.00 0.02 0.02 0.02 0.02 0.02 0.01 0.01 0.01 0.01 0.00 0.00 0.00 0.00 0.00 0.00 0.00 0.00 0.00 0.00 0.00 0.00 0.00 0.00 0.00 0.00 0.00 0.00 0.00 0.01 0.02 0.01 0.01 0.01 0.01 0.01 0.01 0.00 0.00 0.00 -0.00 0.00 0.00 0.00 0.00 -0.00
-0.00 -0.01 -0.01 -0.02 -0.05 -0.05 -0.07 -0.10 -0.27 -0.27 -0.28 -0.22 -0.11 -0.11 -0.14 -0.27 -0.27 -0.45 -0.45 -0.41 -0.41 -0.35 -0.21 -0.07 0.02 0.02 -0.02 -0.06 -0.03 -0.03 0.13 0.22 0.34 0.34 0.51 0.53 0.53 0.46 0.34 0.32 0.32 0.27 0.20 0.15 0.07 0.07 0.05 0.07 0.04 0.04 0.01 0.01 0.00 0.00 0.00 0.00 0.00 0.00 0.01 0.02 0.02 0.02 0.02 0.02 0.01 0.01 0.01 0.01 0.00 0.00 0.00 0.01 0.00 0.00 0.00 0.00 0.00 0.00 0.00 0.00 0.00 0.00 0.00 0.00 0.00 0.00 0.00 0.01 0.02 0.02 0.01 0.01 0.01 0.01 0.01 0.01 0.01 0.00 0.00 0.00 0.00 0.00 0.00
-0.00 -0.00 -0.00 -0.01 -0.01 -0.01 -0.03 -0.06 -0.25 -0.25 -0.31 -0.30 -0.19 -0.19 -0.15 -0.16 -0.16 -0.20 -0.43 -0.30 -0.30 -0.33 -0.23 -0.11 -0.04 -0.04 0.05 0.04 0.03 0.03 0.04 0.17 0.36 0.36 0.57 0.46 0.46 0.50 0.51 0.52 0.52 0.53 0.37 0.25 0.21 0.21 0.12 0.22 0.13 0.13 0.04 0.01 0.01 0.01 0.19 0.08 0.08 0.03 0.01 0.05 0.05 0.05 0.04 0.02 0.02 0.02 0.02 0.02 0.01 0.01 0.01 0.01 0.00 0.00 0.00 0.00 0.00 0.00 0.00 0.00 0.00 0.00 0.00 0.00 0.00 0.00 0.00 0.00 0.00 0.00 0.00 0.01 0.01 0.01 0.01 0.01 0.01 0.01 0.00 0.01 0.01 0.01 0.01
-0.00 -0.00 -0.00 -0.00 -0.00 -0.00 -0.00 -0.01 -0.19 -0.19 -0.31 -0.39 -0.31 -0.31 -0.27 -0.22 -0.22 -0.20 -0.21 -0.20 -0.20 -0.21 -0.27 -0.21 -0.10 -0.10 -0.03 0.03 0.04 0.04 0.03 0.08 0.20 0.20 0.36 0.40 0.40 0.38 0.47 0.40 0.40 0.48 0.42 0.43 0.30 0.30 0.18 0.17 0.15 0.15 0.18 0.17 0.21 0.21 0.08 0.09 0.09 0.07 0.05 0.03 0.03 0.02 0.02 0.01 0.01 0.01 0.02 0.02 0.02 0.02 0.02 0.02 0.01 0.01 0.00 0.00 0.00 0.00 0.00 0.00 0.00 0.00 0.00 0.00 0.00 0.00 0.00 0.00 0.00 0.00 0.00 0.00 0.00 0.00 0.00 0.00 0.00 0.01 0.04 0.04 0.04 0.03 0.03
-0.00 -0.00 -0.00 -0.00 -0.00 -0.00 -0.00 -0.00 -0.11 -0.11 -0.27 -0.38 -0.44 -0.44 -0.39 -0.35 -0.35 -0.31 -0.29 -0.24 -0.24 -0.19 -0.20 -0.25 -0.23 -0.23 -0.14 -0.02 0.02 0.02 0.04 0.06 0.08 0.08 0.10 0.15 0.15 0.18 0.17 0.24 0.24 0.24 0.20 0.30 0.24 0.24 0.10 0.10 0.05 0.05 0.06 0.07 0.02 0.02 0.02 0.04 0.04 0.04 0.03 0.02 0.02 0.02 0.03 0.02 0.01 0.01 0.02 0.02 0.02 0.02 0.02 0.03 0.02 0.02 0.00 0.00 0.00 0.00 0.00 0.00 0.00 0.00 0.00 0.00 0.00 0.00 0.00 0.00 0.00 0.00 0.00 0.00 0.00 0.00 0.00 0.00 0.00 0.00 0.00 0.00 0.00 0.04 0.04
0.00 0.00 0.00 -0.00 -0.00 -0.00 -0.00 -0.00 -0.02 -0.02 -0.19 -0.32 -0.40 -0.40 -0.42 -0.41 -0.41 -0.40 -0.43 -0.34 -0.34 -0.26 -0.21 -0.15 -0.25 -0.25 -0.31 -0.18 -0.07 -0.07 -0.00 0.03 0.05 0.05 0.05 0.04 0.04 0.04 0.11 0.10 0.10 0.08 0.07 0.15 0.14 0.14 0.02 0.02 0.05 0.05 0.01 0.01 0.00 0.00 0.01 0.02 0.02 0.02 0.01 0.00 0.00 0.00 0.00 0.01 0.02 0.02 0.00 0.01 0.03 0.03 0.03 0.00 0.01 0.01 0.01 0.00 0.00 0.00 0.00 0.00 0.00 0.00 0.00 0.00 0.00 0.00 0.00 0.00 0.00 0.00 0.00 0.00 0.00 0.00 0.00 0.00 0.00 0.00 0.00 0.00 0.00 0.01 0.12
0.00 0.01 0.00 0.00 -0.00 -0.00 -0.00 -0.00 -0.01 -0.01 -0.17 -0.32 -0.38 -0.38 -0.42 -0.45 -0.45 -0.40 -0.42 -0.42 -0.42 -0.36 -0.31 -0.24 -0.18 -0.18 -0.20 -0.14 -0.05 -0.05 -0.02 -0.00 0.02 0.02 0.11 0.09 0.09 0.10 0.03 0.03 0.03 0.02 0.03 0.07 0.06 0.06 0.00 0.00 0.01 0.01 0.00 -0.02 -0.01 -0.01 -0.00 0.01 0.01 0.01 0.00 0.00 0.00 0.00 0.00 0.00 0.00 0.00 0.00 0.00 0.00 0.00 0.00 0.00 0.00 0.00 0.00 0.00 0.00 0.00 0.00 0.00 0.00 0.00 0.00 0.00 0.00 0.00 0.00 0.00 0.00 0.00 0.00 0.00 0.00 0.00 0.00 0.00 0.00 0.00 0.00 0.00 0.00 0.00 0.03
-0.00 -0.00 0.00 0.01 0.00 0.00 -0.00 -0.00 -0.01 -0.01 -0.12 -0.28 -0.39 -0.39 -0.42 -0.41 -0.41 -0.40 -0.39 -0.42 -0.42 -0.44 -0.42 -0.38 -0.23 -0.23 -0.18 -0.14 -0.19 -0.19 -0.11 -0.02 -0.00 -0.00 0.11 0.11 0.11 0.08 0.05 0.05 0.05 0.07 0.09 0.10 0.01 0.01 0.00 0.00 0.00 0.00 0.00 -0.00 0.01 0.01 -0.00 0.00 0.00 0.00 0.00 0.00 0.00 0.00 0.00 0.00 0.00 0.00 0.00 0.00 0.00 0.00 0.00 0.00 0.00 0.00 0.00 0.00 0.00 0.00 0.00 0.00 0.00 0.00 0.00 0.00 0.00 0.00 0.00 0.00 0.00 0.00 0.00 0.00 0.00 0.00 0.00 0.00 0.00 0.00 0.00 0.00 0.00 0.00 0.01
-0.02 -0.02 -0.03 -0.00 0.01 0.01 0.00 -0.00 -0.01 -0.01 -0.08 -0.19 -0.32 -0.32 -0.39 -0.38 -0.38 -0.41 -0.43 -0.45 -0.45 -0.45 -0.45 -0.46 -0.34 -0.34 -0.27 -0.34 -0.33 -0.33 -0.29 -0.15 -0.04 -0.04 -0.03 0.07 0.07 0.02 0.12 0.16 0.16 0.08 0.08 0.07 0.02 0.02 0.00 0.00 0.00 0.00 0.00 0.00 0.00 0.00 0.00 0.00 0.00 0.00 0.00 0.00 0.00 0.00 0.00 0.00 0.02 0.02 0.01 0.00 0.00 0.00 0.01 0.01 0.00 0.00 0.00 0.00 0.00 0.00 0.00 0.00 0.00 0.00 0.00 0.00 0.00 0.00 0.00 0.00 0.00 0.00 0.00 0.00 0.00 0.00 0.00 0.00 0.00 0.00 0.00 0.00 0.00 0.00 0.00
-0.02 -0.02 -0.02 -0.02 -0.01 -0.01 0.01 0.00 0.00 0.00 -0.00 -0.10 -0.22 -0.22 -0.31 -0.33 -0.33 -0.34 -0.33 -0.36 -0.36 -0.36 -0.34 -0.38 -0.41 -0.41 -0.35 -0.26 -0.33 -0.33 -0.41 -0.28 -0.16 -0.16 -0.10 -0.08 -0.08 -0.13 -0.02 0.05 0.05 0.08 0.05 0.03 0.07 0.07 0.04 0.02 0.03 0.03 0.01 0.00 0.00 0.00 0.00 0.00 0.00 0.00 0.00 0.00 0.00 0.00 0.01 0.02 0.00 0.00 0.00 0.00 0.00 0.00 0.01 0.01 0.00 0.00 0.00 0.00 0.00 0.00 0.00 0.00 0.00 0.00 0.00 0.00 0.00 0.00 0.00 0.00 0.00 0.00 0.00 0.00 0.00 0.00 0.00 0.00 0.00 0.00 0.00 0.00 0.00 0.00 0.00
-0.01 -0.04 -0.03 -0.04 -0.04 -0.04 -0.01 0.01 0.01 0.01 0.01 -0.02 -0.08 -0.08 0.02 -0.08 -0.08 -0.20 -0.19 -0.21 -0.21 -0.24 -0.27 -0.26 -0.21 -0.21 -0.21 -0.11 -0.16 -0.16 -0.20 -0.16 -0.15 -0.15 -0.14 -0.15 -0.15 -0.04 -0.04 -0.01 -0.01 0.04 0.11 0.08 0.09 0.09 0.14 0.11 0.06 0.06 0.03 0.01 0.00 0.00 0.00 0.00 0.00 0.00 0.00 0.00 0.00 0.00 0.00 0.00 0.00 0.00 0.00 0.00 0.00 0.00 0.00 0.00 0.00 0.00 0.00 0.00 0.00 0.00 0.00 0.00 0.00 0.00 0.00 0.00 0.00 0.00 0.00 0.00 0.00 0.00 0.00 0.00 0.00 0.00 0.00 0.00 0.00 0.00 0.00 0.00 0.00 0.00 0.00
-0.01 -0.01 -0.05 -0.07 -0.07 -0.07 -0.04 -0.02 -0.01 -0.01 0.01 0.04 0.05 0.05 0.01 0.00 0.00 -0.07 -0.16 -0.21 -0.21 -0.21 -0.31 -0.27 -0.17 -0.17 -0.18 -0.19 -0.16 -0.16 -0.12 -0.07 -0.05 -0.05 -0.08 -0.09 -0.09 0.02 0.00 0.01 0.01 0.04 0.06 0.08 0.09 0.09 0.15 0.16 0.08 0.08 0.08 0.08 0.06 0.06 0.00 0.00 0.00 0.00 0.00 0.00 0.00 0.00 0.00 0.00 0.00 0.00 0.00 0.00 0.00 0.00 0.00 0.00 0.00 0.00 0.00 0.00 0.00 0.00 0.01 0.01 0.01 0.00 0.00 0.00 0.00 0.00 0.01 0.01 0.00 0.00 0.01 0.00 0.00 0.00 0.00 0.00 0.00 0.00 0.00 0.00 0.00 0.00 0.00
-0.00 -0.01 -0.04 -0.07 -0.07 -0.07 -0.09 -0.07 -0.05 -0.05 -0.02 -0.02 -0.00 -0.00 -0.01 0.01 0.01 0.00 -0.03 -0.08 -0.08 -0.17 -0.24 -0.24 -0.20 -0.20 -0.33 -0.15 -0.10 -0.10 -0.09 -0.07 -0.04 -0.04 -0.03 -0.02 -0.02 0.02 0.01 0.02 0.02 0.03 0.03 0.05 0.08 0.08 0.13 0.12 0.11 0.11 0.10 0.09 0.07 0.07 0.05 0.00 0.00 0.00 0.00 0.00 0.00 0.00 0.00 0.00 0.00 0.00 0.00 0.00 0.00 0.00 0.00 0.00 0.00 0.00 0.00 0.00 0.00 0.00 0.00 0.00 0.00 0.00 0.00 0.00 0.00 0.00 0.00 0.00 0.00 0.00 0.00 0.00 0.00 0.00 0.00 0.00 0.00 0.00 0.00 0.00 0.00 0.00 0.00